Overview Statistics Trail Chart Weather Telemetry Raw packets
 

This is the latest recevied weather packets stored in our database for station/object OK1VOF-13. If no packets are shown the sender has not sent any weather packets the latest 10 day(s).

<< 55 56 57 58 59 60 61 >>
Time Temp. Humidity Pressure Rain* Wind** Luminosity Snow
1787846804 35.56° C 30% 1020.3 hPa 0 mm - - -
1787845908 35.56° C 30% 1020.4 hPa 0 mm - - -
1787845609 35.56° C 30% 1020.3 hPa 0 mm - - -
1787845005 35.56° C 31% 1020.4 hPa 0 mm - - -
1787844407 35° C 32% 1020.6 hPa 0 mm - - -
1787843219 34.44° C 34% 1020.5 hPa 0 mm - - -
1787842920 33.89° C 34% 1020.6 hPa 0 mm - - -
1787842621 33.89° C 35% 1020.7 hPa 0 mm - - -
1787842322 33.89° C 35% 1020.7 hPa 0 mm - - -
1787842017 33.33° C 36% 1020.7 hPa 0 mm - - -
1787841426 32.78° C 36% 1020.7 hPa 0 mm - - -
1787841127 32.78° C 37% 1020.7 hPa 0 mm - - -
1787840824 32.22° C 37% 1020.7 hPa 0 mm - - -
1787840523 32.22° C 38% 1020.6 hPa 0 mm - - -
1787840231 31.67° C 38% 1020.7 hPa 0 mm - - -
1787839036 31.11° C 38% 1020.8 hPa 0 mm - - -
1787838737 31.11° C 39% 1020.8 hPa 0 mm - - -
1787838133 30.56° C 40% 1020.8 hPa 0 mm - - -
1787837834 30.56° C 41% 1020.9 hPa 0 mm - - -
1787836938 30° C 42% 1021 hPa 0 mm - - -
1787836048 28.89° C 42% 1020.8 hPa 0 mm - - -
1787835450 28.89° C 44% 1020.9 hPa 0 mm - - -
1787834554 27.78° C 46% 1021 hPa 0 mm - - -
1787834255 27.78° C 47% 1020.9 hPa 0 mm - - -
1787833658 27.22° C 47% 1020.9 hPa 0 mm - - -

* Rain latest hour (hover to see other rain measurements)
** Current wind speed in m/s (hover to see current wind gust speed)